Regional Weather Roundup
Issued by NWS

Home | Current Version | Previous Version | Graphics & Text | Print | Product List | Glossary On
Versions: 1 2 3 4 5 6 7 8 9 10 11 12 13 14 15 16 17 18 19 20 21 22 23 24 25 26 27 28 29 30 31 32 33 34 35 36 37 38 39 40 41 42 43 44 45 46 47 48 49 50
000
ASUS43 KIND 270109
RWRIN

WEATHER ROUNDUP FOR INDIANA
NATIONAL WEATHER SERVICE INDIANAPOLIS IN
900 PM EDT SUN APR 26 2015

NOTE: "FAIR" INDICATES FEW OR NO CLOUDS BELOW 12,000 FEET WITH NO
SIGNIFICANT WEATHER AND/OR OBSTRUCTIONS TO VISIBILITY.

* - STATION DOES NOT REPORT WEATHER SUCH AS PRECIPITATION OR FOG.

+ - STATION NOT QUALITY CONTROLLED BY THE NATIONAL WEATHER SERVICE.
    USE DATA WITH CAUTION...ESPECIALLY DEWPOINT AND RELATIVE
    HUMIDITY OBSERVATIONS.

INZ001>003-010>013-019-020-270200-
NORTHWEST INDIANA

CITY           SKY/WX    TMP DP  RH WIND       PRES   REMARKS
GARY /AIRPORT/ CLEAR     45  27  49 N17       30.02R
KNOX *+        CLEAR     41  10  28 N9        29.97S
LA PORTE +     CLEAR     44  29  54 N9G17     29.99R
MICHIGAN CITY+ CLEAR     41  27  56 N5        29.99S
MONTICELLO +   CLEAR     46  32  58 N13       29.96R
VALPARAISO     CLEAR     41  28  60 N7        29.99S

$$

LMZ046-743>745-270200-
SOUTHERN LAKE MICHIGAN

STATION/POSITION TIME  TEMP    WIND        PRES    WAVE
                       AIR SEA DIR/SP/G            HT
                 (UTC) (F)     (DEG/KT/KT) (MB)    (FT)
BURNS HARBOR     0100   44      30/ 11/ 16 1016.3S
MICHIGAN CITY    0100   41      20/  9/ 11   N/A
5NW MICH CITY    0100   41 45   40/  6/ 10   N/A     3

$$

INZ004-005-014>016-021>024-270200-
NORTH CENTRAL INDIANA

CITY           SKY/WX    TMP DP  RH WIND       PRES   REMARKS
GOSHEN         CLEAR     49  28  44 NW15G22   29.93R
LOGANSPORT +   CLEAR     46  28  49 NW12      29.96R
PERU/GRISSOM   CLEAR     50  34  54 NW12      29.93R
ROCHESTER +    CLEAR     50  30  46 NW12      29.95R
SOUTH BEND     CLEAR     46  24  42 N12       29.97R
WARSAW +       CLEAR     46  30  53 NW10      29.93R

$$

INZ006>009-017-018-025>027-270200-
NORTHEAST INDIANA

CITY           SKY/WX    TMP DP  RH WIND       PRES   REMARKS
ANGOLA *+      CLOUDY    52  36  54 CALM      29.90S
AUBURN +       CLEAR     50  28  43 CALM      29.91S
FORT WAYNE     PTCLDY    49  33  54 N8        29.91R
HUNTINGTON +   CLEAR     50  32  50 N3        29.91R

$$

INZ028-029-035-036-043>045-051>053-270200-
WEST CENTRAL INDIANA

CITY           SKY/WX    TMP DP  RH WIND       PRES   REMARKS
CRAWFORDSVL +  CLEAR     47  27  45 N10       29.95R
GREENCASTLE +  MOCLDY    52  30  43 N10       29.94R
LAFAYETTE      CLEAR     48  30  49 N14       29.97R
TERRE HAUTE    PTCLDY    53  33  46 N14       29.95R

$$

INZ030>032-037>040-046>048-054>057-064-065-270200-
CENTRAL INDIANA

CITY           SKY/WX    TMP DP  RH WIND       PRES   REMARKS
CP ATTERBURY + MOCLDY    52  34  50 N5        29.92S
COLUMBUS       CLOUDY    50  34  53 N7        29.92R
FISHERS *+     PTCLDY    50  36  57 CALM      29.92
FRANKFORT +    CLEAR     49  35  58 NW13G18   29.96R
GREENWOOD *+   MOCLDY    52  30  43 N6        29.92S
INDIANAPOLIS   PTCLDY    52  32  46 N5        29.91R
-EAGLE CREEK   MOCLDY    53  35  50 N8        29.92R
KOKOMO *+      CLEAR     50  34  53 N14       29.93R
MARION +       PTCLDY    51  31  45 N6        29.92R
MT COMFORT *+  PTCLDY    48  28  46 N7        29.92R
SHELBYVILLE    CLOUDY    52  39  61 N6        29.91R
ZIONSVILLE +   MOCLDY    51  35  53 NW9       29.93R

$$

INZ033-034-041-042-049-050-058-059-270200-
EAST CENTRAL INDIANA

CITY           SKY/WX    TMP DP  RH WIND       PRES   REMARKS
MUNCIE         MOCLDY    51  36  56 CALM      29.90S

$$

INZ060-061-067>069-081>083-085>088-270200-
SOUTHWEST INDIANA

CITY           SKY/WX    TMP DP  RH WIND       PRES   REMARKS
EVANSVILLE     CLEAR     57  37  47 N6        29.91R
HUNTINGBURG *+ CLEAR     55  36  47 N9        29.90R
WASHINGTON +   CLEAR     53  33  46 N8        29.92R

$$

INZ062-063-066-070>080-084-089>092-270200-
SOUTH CENTRAL AND SOUTHEAST INDIANA

CITY           SKY/WX    TMP DP  RH WIND       PRES   REMARKS
BEDFORD +      CLEAR     52  32  46 N5        29.92R
BLOOMINGTON    PTCLDY    49  36  61 N7        29.92R
MADISON *+     CLEAR     52  32  46 N5        29.92R
NORTH VERNON + MOCLDY    50  37  62 N3        29.91R
SEYMOUR +      MOCLDY    54  36  50 N8        29.91R

$$




USA.gov is the U.S. government's official web portal to all federal, state and local government web resources and services.